User: anonymous   Login
Location: Donzy-le-Pr�
(47.3659°N, 3.1107°E)
Time: 17:52:36
(UTC+00:00)
Language:

USA 307 - Orbit

View from above orbital plane
View from above orbital plane
View from above satellite
View from above satellite

Ground track
Ground track

The orbit data is extracted from the following two-line orbital elements,

1 45875U 20046C   21127.86099205 0.00002100  00000-0  17397-3 0    09
2 45875  53.9792  81.6746 0007587   0.9128 359.0871 14.98384519    00
Epoch (UTC): 07 May 2021 20:39:49
Eccentricity: 0.0007587
inclination: 53.9792°
perigee height: 566 km
apogee height: 577 km
right ascension of ascending node: 81.6746°
argument of perigee: 0.9128°
revolutions per day: 14.98384519
mean anomaly at epoch: 359.0871°
orbit number at epoch: 0

The dashed part of the orbit path shows where the satellite is in the earth's shadow,  

DLR